This demonstration page uses our WeatherBlox Daily Observations layout. Learn more.

Left ArrowRight Arrow

Hourly Observations for April 5, 2017

Temp ( °F °C ) Dew Point ( °F °C ) Humidity (%) Winds ( mph kmh ) Pressure ( in mb ) Visibility ( mi km ) Precip ( " mm )
12:15 am 00:15 Partly Cloudy 64 18 46 8 52 52 NW 12 19 29.80 1009 10 16 N/A
12:35 am 00:35 Partly Cloudy 63 17 48 9 59 59 NW 13 20 29.80 1009 10 16 N/A
12:55 am 00:55 Clear 64 18 50 10 60 60 NW 13 20 29.80 1009 10 16 N/A
1:15 am 01:15 Clear 64 18 48 9 56 56 WNW 8 13 29.83 1010 10 16 N/A
1:35 am 01:35 Clear 64 18 46 8 52 52 WNW 6 9 29.83 1010 10 16 N/A
1:55 am 01:55 Clear 63 17 46 8 56 56 WNW 10 17 29.83 1010 10 16 N/A
2:15 am 02:15 Clear 63 17 45 7 52 52 WNW 9 15 29.83 1010 10 16 N/A
2:35 am 02:35 Clear 61 16 45 7 55 55 WNW 8 13 29.83 1010 10 16 N/A
2:55 am 02:55 Clear 61 16 45 7 55 55 NW 8 13 29.83 1010 10 16 N/A
3:15 am 03:15 Clear 59 15 45 7 59 59 NW 8 13 29.83 1010 10 16 N/A
3:35 am 03:35 Clear 59 15 45 7 59 59 NW 8 13 29.83 1010 10 16 N/A
3:55 am 03:55 Clear 59 15 45 7 59 59 NW 6 9 29.83 1010 10 16 N/A
4:15 am 04:15 Clear 59 15 45 7 59 59 NW 6 9 29.83 1010 10 16 N/A
4:35 am 04:35 Clear 59 15 45 7 59 59 NW 8 13 29.85 1011 10 16 N/A
4:55 am 04:55 Clear 59 15 45 7 59 59 NW 14 22 29.85 1011 10 16 N/A
5:15 am 05:15 Clear 59 15 46 8 63 63 NW 16 26 29.85 1011 10 16 N/A
5:35 am 05:35 Clear 59 15 46 8 63 63 N N/A 29.88 1012 10 16 N/A
5:55 am 05:55 Clear 59 15 46 8 63 63 N N/A 29.88 1012 10 16 N/A
6:15 am 06:15 Clear 59 15 46 8 63 63 N N/A 29.88 1012 10 16 N/A
6:30 am 06:30 Clear 57 14 46 8 67 67 ENE 7 11 29.88 1012 10 16 N/A
6:55 am 06:55 Sunny 57 14 46 8 67 67 NNW 8 13 29.91 1013 10 16 N/A
7:15 am 07:15 Sunny 55 13 46 8 72 72 NNW 13 20 29.91 1013 10 16 N/A
7:35 am 07:35 Sunny 57 14 46 8 67 67 NNW 8 13 29.94 1014 10 16 N/A
7:55 am 07:55 Sunny 59 15 46 8 63 63 N 10 17 29.94 1014 10 16 N/A
8:15 am 08:15 Sunny 59 15 45 7 59 59 N 10 17 29.94 1014 10 16 N/A
8:35 am 08:35 Sunny 59 15 45 7 59 59 N 10 17 29.97 1015 10 16 N/A
8:55 am 08:55 Sunny 59 15 45 7 59 59 NNW 9 15 29.97 1015 10 16 N/A
9:15 am 09:15 Sunny 61 16 45 7 55 55 NNW 7 11 29.97 1015 10 16 N/A
9:35 am 09:35 Sunny 61 16 45 7 55 55 NNW 10 17 29.97 1015 10 16 N/A
9:55 am 09:55 Sunny 61 16 46 8 59 59 NNW 9 15 29.97 1015 10 16 N/A
10:15 am 10:15 Sunny 61 16 45 7 55 55 N 7 11 29.97 1015 10 16 N/A
10:35 am 10:35 Sunny 63 17 46 8 56 56 WNW 9 15 29.97 1015 10 16 N/A
10:55 am 10:55 Sunny 63 17 46 8 56 56 NNW 8 13 29.97 1015 10 16 N/A
11:15 am 11:15 Sunny 63 17 46 8 56 56 NNE 5 7 29.97 1015 10 16 N/A
11:35 am 11:35 Sunny 64 18 48 9 56 56 NW 8 13 29.94 1014 10 16 N/A
11:55 am 11:55 Sunny 64 18 46 8 52 52 N N/A 29.94 1014 10 16 N/A
12:15 pm 12:15 Sunny 66 19 46 8 49 49 NNW 3 6 29.94 1014 10 16 N/A
12:35 pm 12:35 Sunny 68 20 46 8 46 46 N N/A 29.94 1014 10 16 N/A
12:55 pm 12:55 Sunny 68 20 48 9 49 49 N N/A 29.94 1014 10 16 N/A
1:15 pm 13:15 Sunny 68 20 46 8 46 46 N 6 9 29.91 1013 10 16 N/A
1:35 pm 13:35 Sunny 70 21 46 8 43 43 N N/A 29.91 1013 10 16 N/A
1:55 pm 13:55 Sunny 70 21 46 8 43 43 NE 5 7 29.91 1013 10 16 N/A
2:15 pm 14:15 Sunny 70 21 46 8 43 43 N N/A 29.91 1013 10 16 N/A
2:35 pm 14:35 Sunny 72 22 46 8 41 41 N N/A 29.88 1012 10 16 N/A
2:55 pm 14:55 Sunny 72 22 46 8 41 41 S 7 11 29.88 1012 10 16 N/A
3:15 pm 15:15 Sunny 72 22 46 8 41 41 SSE 8 13 29.88 1012 10 16 N/A
3:35 pm 15:35 Sunny 73 23 48 9 41 41 S 3 6 29.88 1012 10 16 N/A
3:55 pm 15:55 Sunny 73 23 46 8 38 38 SSE 7 11 29.85 1011 10 16 N/A
4:15 pm 16:15 Sunny 72 22 46 8 41 41 SSE 6 9 29.85 1011 10 16 N/A
4:35 pm 16:35 Sunny 73 23 48 9 41 41 SE 5 7 29.85 1011 10 16 N/A
4:55 pm 16:55 Sunny 73 23 48 9 41 41 SE 5 7 29.85 1011 10 16 N/A
5:15 pm 17:15 Sunny 73 23 48 9 41 41 SE 8 13 29.83 1010 10 16 N/A
5:35 pm 17:35 Sunny 73 23 46 8 38 38 SE 8 13 29.83 1010 10 16 N/A
5:55 pm 17:55 Sunny 72 22 48 9 44 44 ESE 7 11 29.80 1009 10 16 N/A
6:15 pm 18:15 Sunny 73 23 46 8 38 38 ESE 10 17 29.80 1009 10 16 N/A
6:35 pm 18:35 Sunny 73 23 46 8 38 38 SE 6 9 29.80 1009 10 16 N/A
6:55 pm 18:55 Sunny 72 22 48 9 44 44 SE 14 22 29.83 1010 10 16 N/A
7:15 pm 19:15 Sunny 70 21 50 10 50 50 SE 12 19 29.80 1009 10 16 N/A
7:35 pm 19:35 Sunny 70 21 50 10 50 50 SE 10 17 29.80 1009 10 16 N/A
7:55 pm 19:55 Mostly Cloudy 70 21 50 10 50 50 SE 8 13 29.80 1009 10 16 N/A
8:15 pm 20:15 Cloudy 70 21 50 10 50 50 SE 8 13 29.80 1009 10 16 N/A
8:35 pm 20:35 Cloudy 68 20 50 10 53 53 SE 15 24 29.80 1009 10 16 N/A
8:55 pm 20:55 Cloudy 68 20 50 10 53 53 SE 14 22 29.77 1008 10 16 N/A
9:15 pm 21:15 Cloudy 68 20 50 10 53 53 SE 14 22 29.77 1008 10 16 N/A
9:35 pm 21:35 Cloudy 68 20 50 10 53 53 SSE 18 30 29.77 1008 10 16 N/A
9:55 pm 21:55 Mostly Cloudy 68 20 48 9 49 49 SSE 21 33 29.74 1007 10 16 N/A
10:15 pm 22:15 Partly Cloudy 66 19 50 10 56 56 SE 12 19 29.74 1007 10 16 N/A
10:35 pm 22:35 Clear 64 18 50 10 60 60 SSE 13 20 29.74 1007 10 16 N/A
10:55 pm 22:55 Clear 64 18 50 10 60 60 SE 13 20 29.74 1007 10 16 N/A
11:15 pm 23:15 Clear 63 17 50 10 64 64 SSE 12 19 29.74 1007 10 16 N/A
11:35 pm 23:35 Clear 63 17 50 10 64 64 SSE 10 17 29.74 1007 10 16 N/A
11:55 pm 23:55 Clear 61 16 50 10 68 68 SE 8 13 29.74 1007 10 16 N/A

Powered by AerisWeather